Showing default

COSMOS 2466 (GLONASS), 37137

Orbit data source: Space-Track

COSMOS 2466 (GLONASS), 37137 is a Commonwealth of Independent States-origin payload satellite in MEO that was launched on Thu, 02 Sep 2010 UTC via a PROTON-M/DM-2 launch vehicle from the Tyuratam Missile And Space Complex (TTMTR). Payload-class satellites include a variety of spacecraft equipped with specific instruments for various scientific and technological missions. These include communications satellites like Starlink; space stations such as the ISS; scientific satellites like the Hubble; Earth observation satellites from companies like Planet Labs, Umbra, and HawkEye 360; GPS; miniature CubeSats for education and research; and military/defense satellites.

Loading next visibility...
Identifier
37137, 2010-041A
Orbit
MEO
Last TLE update
3 days ago
Origin
Manufacturer
Resehetnev ISS
Mission
Non-operational Defense Navigation
Bus & Motor
URAGAN, Unknown motor
Mass
1,450 kg wet, ~1,200 kg dry
Launch date (UTC)
2010-09-02 (15 years ago)
Launch vehicle
PROTON-M/DM-2
Launch site
Tyuratam Missile And Space Complex (TTMTR)
Object type
Payload
Rocket body
Debris
Shape & HBR
Cyl + 1 Ant + 2 Pan, 7.8 m
Radar Cross Section
8.467 m², Large (>1 m²)

Expand to show TLE details & history

TLE from 3 days ago
0 COSMOS 2466 (GLONASS)
1 37137U 10041A   25126.30252907 -.00000019  00000-0  00000-0 0  9992
2 37137  63.8908 204.0245 0017665 178.6245 231.9211  2.13112657114173
Epoch: 2025-05-06T07:15Z
Definitive object data (Epoch: 2025-05-06T07:15:38.511Z)
Latitude
43.79519°
Longitude
-101.33887°
Altitude
19,162.105 km
Speed
3.95 km/s
True Right ascension
15h 27m 54s
True Declination
43° 44' 50"
Sunlit
Object was in daylight at TLE epoch
Visualization TLE readout
Latitude
-0.36705°
Longitude
50.78497°
Altitude
19,084.561 km
Speed
3.96 km/s
Apparent Right ascension
01h 50m 05s
Apparent Declination
-8° 00' 48"
Sunlit
Object is in daylight
Visualization observer readout
Local Sidereal Time
15:02:28
Azimuth
31.746° NE
Elevation
-54.232°
Doppler factor
1
Orbital elements
Apogee altitude
19,173.749 km
Perigee altitude
19,083.633 km
Semi-major axis
25,506.828 km
Eccentricity
0.0017665
Inclination
63.8908°
RAAN
204.0245°
Arg. of periapsis
178.6245°
True anomaly
231.76197°
Mean anomaly
231.9211°
Eccentric anomaly
231.84152°
Mean motion
0.53279 °/min
BSTAR
Unknown
Orbital period
675.68 mins
Loading maneuver chart data...
Loading SW <> Apogee altitude chart data...
Loading historical data...
Loading historical data...
Loading historical data...
Loading historical data...
Loading historical data...
Loading historical data...
Loading historical data...

COSMOS 2466 (GLONASS) Visibility forecast

Observer location: undefined°, undefined°

Span
Click to sort rows by Start time (UTC) header in descending order
Start Az.
Max El. time (UTC)
Max El. Az.
Max El.
End time (UTC)
End Az.
281 mins2025-05-09 14:19:33.931Z315.13° NNW2025-05-09 16:47:33.931Z263.647° W44.164°2025-05-09 19:00:33.931Z190.875° SSW
76 mins2025-05-10 01:01:33.931Z63.709° ENE2025-05-10 01:39:33.931Z45.239° ENE13.67°2025-05-10 02:17:33.931Z27.524° NE
|